一网星座-0532星 (ONEWEB-0532)

导读 | 豆包AI

ONEWEB-0532是一网(OneWeb)星座的低轨通信卫星,由英国主导,于2023年1月10日发射入轨。作为OneWeb一期组网卫星之一,它运行于约1200公里轨道,单星重约147.5公斤,采用Ku/Ka波段提供宽带服务,单星通信能力约7.5Gbps,助力构建全球覆盖的卫星互联网,为偏远地区提供高速网络接入,设计寿命5年,寿命结束后将主动离轨减少空间碎片。

Basic Information
目录编号:
55140
目录名称:
ONEWEB-0532
国际标识:
2023-004A
轨道中心:
EARTH
卫星名称:
一网星座-0532星
卫星全名:
一网星座-0532星 (ONEWEB-0532)
卫星状态:
在轨 (已飞行1208 天)
发射日期:
2023-01-10 UTC
国别 :
英国 (GB)
星等 :
--
Orbit Information
数据来源 国际轨道数据 AOE轨道数据
星历时间 2026-05-02T12:01:47+0800
6小时前
查看轨道信息
2026-04-27T00:00:00+0800
5天前
查看轨道信息
半长轴 7571.85km 7571.863km
偏心率 0.0001591 0.0001764
轨道倾角 87.918° 87.918°
近地点辐角 91.332° 75.281°
升交点赤经 15.011° 16.100°
平近点角 268.799° 124.460°
近地点 1192.508km 1192.39km
远地点 1194.918km 1195.062km
周期 109.286分钟 109.286分钟
每日圈数 13.176491 13.176458
Detailed Information
平衡模式:
三轴稳定
覆盖范围:
全球
运营商:
一网卫星公司
运营商所在国:
英国
制造商(研发单位):
一网卫星公司
制造商所在国:
英国
使用方式:
暂无
Satellite Introduction
OneWeb卫星网络由648颗重约125公斤的微型卫星组成,运行在1200公里的轨道上。 每颗卫星都能够提供至少每秒8千兆位的吞吐量,以使用其高吞吐量的Ku频段有效载荷为家庭和移动平台提供互联网接入。该卫星仍在工作。
2D Orbit Map
3D Orbit Map
Orbit Altitude Analysis Chart
Orbit Inclination Analysis Chart
Orbit Comprehensive Analysis Chart
View Comprehensive Chart